Time,TemperatureF,DewpointF,PressureIn,WindDirection,WindDirectionDegrees,WindSpeedMPH,WindSpeedGustMPH,Humidity,HourlyPrecipIn,Conditions,Clouds,dailyrainin,SoftwareType,DateUTC
2013-09-08 00:01:00,79.4,70.8,29.12,North,8,0.0,0.0,75,0.00,,---,0.00,VWS V12.08,2013-09-08 05:01:00,
2013-09-08 00:06:00,79.4,70.8,29.12,North,7,0.0,0.0,75,0.00,,---,0.00,VWS V12.08,2013-09-08 05:06:00,
2013-09-08 00:11:00,79.3,70.7,29.13,NNE,21,0.0,0.0,75,0.00,,---,0.00,VWS V12.08,2013-09-08 05:11:00,
2013-09-08 00:16:00,79.7,71.1,29.13,NNE,13,0.0,0.0,75,0.00,,---,0.00,VWS V12.08,2013-09-08 05:16:00,
2013-09-08 00:21:00,80.1,71.1,29.13,ENE,77,0.0,0.0,74,0.00,,---,0.00,VWS V12.08,2013-09-08 05:21:00,
2013-09-08 00:26:00,80.2,71.2,29.13,SSE,168,0.0,0.0,74,0.00,,---,0.00,VWS V12.08,2013-09-08 05:26:00,
2013-09-08 00:31:00,80.1,71.1,29.13,North,0,0.0,0.0,74,0.00,,---,0.00,VWS V12.08,2013-09-08 05:31:00,
2013-09-08 00:36:00,80.0,71.0,29.13,North,0,0.0,0.0,74,0.00,,---,0.00,VWS V12.08,2013-09-08 05:36:00,
2013-09-08 00:41:00,80.0,71.0,29.13,North,0,0.0,0.0,74,0.00,,---,0.00,VWS V12.08,2013-09-08 05:41:00,
2013-09-08 00:46:00,79.9,70.9,29.13,North,0,0.0,0.0,74,0.00,,---,0.00,VWS V12.08,2013-09-08 05:46:00,
2013-09-08 00:51:00,79.8,71.2,29.13,North,0,0.0,0.0,75,0.00,,---,0.00,VWS V12.08,2013-09-08 05:51:00,
2013-09-08 00:56:00,79.7,71.1,29.13,North,0,0.0,0.0,75,0.00,,---,0.00,VWS V12.08,2013-09-08 05:56:00,
2013-09-08 01:01:00,79.6,71.0,29.13,North,0,0.0,0.0,75,0.00,,---,0.00,VWS V12.08,2013-09-08 06:01:00,
2013-09-08 01:06:00,79.3,70.7,29.13,North,356,0.0,0.0,75,0.00,,---,0.00,VWS V12.08,2013-09-08 06:06:00,
2013-09-08 01:11:00,79.2,71.0,29.13,NNW,339,0.0,0.0,76,0.00,,---,0.00,VWS V12.08,2013-09-08 06:11:00,
2013-09-08 01:16:00,78.9,70.7,29.13,North,355,0.0,0.0,76,0.00,,---,0.00,VWS V12.08,2013-09-08 06:16:00,
2013-09-08 01:21:00,78.6,70.8,29.13,North,356,0.0,0.0,77,0.00,,---,0.00,VWS V12.08,2013-09-08 06:21:00,
2013-09-08 01:26:00,78.2,70.8,29.14,North,0,0.0,0.0,78,0.00,,---,0.00,VWS V12.08,2013-09-08 06:26:00,
2013-09-08 01:31:00,77.9,70.9,29.13,North,356,0.0,0.0,79,0.00,,---,0.00,VWS V12.08,2013-09-08 06:31:00,
2013-09-08 01:36:00,77.6,70.6,29.14,North,359,0.0,0.0,79,0.00,,---,0.00,VWS V12.08,2013-09-08 06:36:00,
2013-09-08 01:42:00,77.4,70.8,29.13,North,359,0.0,0.0,80,0.00,,---,0.00,VWS V12.08,2013-09-08 06:42:00,
2013-09-08 01:47:00,77.3,70.7,29.13,NNW,348,0.0,0.0,80,0.00,,---,0.00,VWS V12.08,2013-09-08 06:47:00,
2013-09-08 01:52:00,77.1,70.5,29.13,NNW,339,0.0,0.0,80,0.00,,---,0.00,VWS V12.08,2013-09-08 06:52:00,
2013-09-08 01:57:00,77.0,70.7,29.13,NNW,341,0.0,0.0,81,0.00,,---,0.00,VWS V12.08,2013-09-08 06:57:00,
2013-09-08 02:02:00,77.0,70.4,29.13,NNW,339,0.0,0.0,80,0.00,,---,0.00,VWS V12.08,2013-09-08 07:02:00,
2013-09-08 02:07:00,76.7,70.4,29.13,North,0,0.0,0.0,81,0.00,,---,0.00,VWS V12.08,2013-09-08 07:07:00,
2013-09-08 02:12:00,76.6,70.3,29.13,North,0,0.0,0.0,81,0.00,,---,0.00,VWS V12.08,2013-09-08 07:12:00,
2013-09-08 02:17:00,76.5,70.6,29.13,NNW,338,0.0,0.0,82,0.00,,---,0.00,VWS V12.08,2013-09-08 07:17:00,
2013-09-08 02:23:00,76.4,70.1,29.12,North,0,0.0,0.0,81,0.00,,---,0.00,VWS V12.08,2013-09-08 07:23:00,
2013-09-08 02:28:00,76.3,70.1,29.12,NNW,344,0.0,0.0,81,0.00,,---,0.00,VWS V12.08,2013-09-08 07:28:00,
2013-09-08 02:33:00,76.2,70.3,29.12,NNW,343,0.0,0.0,82,0.00,,---,0.00,VWS V12.08,2013-09-08 07:33:00,
2013-09-08 02:38:00,76.2,70.3,29.12,NNW,343,0.0,0.0,82,0.00,,---,0.00,VWS V12.08,2013-09-08 07:38:00,
2013-09-08 02:43:00,76.2,70.3,29.12,NNW,342,0.0,0.0,82,0.00,,---,0.00,VWS V12.08,2013-09-08 07:43:00,
2013-09-08 02:49:00,76.0,70.1,29.12,North,353,0.0,0.0,82,0.00,,---,0.00,VWS V12.08,2013-09-08 07:49:00,
2013-09-08 02:54:00,75.9,70.0,29.12,North,355,0.0,0.0,82,0.00,,---,0.00,VWS V12.08,2013-09-08 07:54:00,
2013-09-08 02:59:00,75.8,69.9,29.12,North,359,0.0,0.0,82,0.00,,---,0.00,VWS V12.08,2013-09-08 07:59:00,
2013-09-08 03:04:00,75.7,69.8,29.13,NNW,344,0.0,0.0,82,0.00,,---,0.00,VWS V12.08,2013-09-08 08:04:00,
2013-09-08 03:09:00,75.5,69.6,29.13,NNW,344,0.0,0.0,82,0.00,,---,0.00,VWS V12.08,2013-09-08 08:09:00,
2013-09-08 03:15:00,75.3,69.4,29.13,North,353,0.0,0.0,82,0.00,,---,0.00,VWS V12.08,2013-09-08 08:15:00,
2013-09-08 03:20:00,74.9,69.4,29.13,NNW,339,0.0,0.0,83,0.00,,---,0.00,VWS V12.08,2013-09-08 08:20:00,
2013-09-08 03:25:00,74.3,69.2,29.12,North,0,0.0,0.0,84,0.00,,---,0.00,VWS V12.08,2013-09-08 08:25:00,
2013-09-08 03:30:00,73.9,69.1,29.13,North,359,0.0,0.0,85,0.00,,---,0.00,VWS V12.08,2013-09-08 08:30:00,
2013-09-08 03:35:00,73.7,69.3,29.13,North,0,0.0,0.0,86,0.00,,---,0.00,VWS V12.08,2013-09-08 08:35:00,
2013-09-08 03:40:00,73.6,69.2,29.13,North,357,0.0,0.0,86,0.00,,---,0.00,VWS V12.08,2013-09-08 08:40:00,
2013-09-08 03:45:00,73.5,69.1,29.13,North,356,0.0,0.0,86,0.00,,---,0.00,VWS V12.08,2013-09-08 08:45:00,
2013-09-08 03:50:00,73.3,68.9,29.13,North,0,0.0,0.0,86,0.00,,---,0.00,VWS V12.08,2013-09-08 08:50:00,
2013-09-08 03:55:00,73.3,68.9,29.12,NNW,341,0.0,0.0,86,0.00,,---,0.00,VWS V12.08,2013-09-08 08:55:00,
2013-09-08 04:01:00,73.3,68.9,29.12,NNW,339,0.0,0.0,86,0.00,,---,0.00,VWS V12.08,2013-09-08 09:01:00,
2013-09-08 04:06:00,73.3,68.9,29.12,NNW,347,0.0,0.0,86,0.00,,---,0.00,VWS V12.08,2013-09-08 09:06:00,
2013-09-08 04:11:00,73.2,68.8,29.12,North,353,0.0,0.0,86,0.00,,---,0.00,VWS V12.08,2013-09-08 09:11:00,
2013-09-08 04:16:00,73.1,68.7,29.12,North,349,0.0,0.0,86,0.00,,---,0.00,VWS V12.08,2013-09-08 09:16:00,
2013-09-08 04:21:00,73.1,68.7,29.12,NNW,345,0.0,0.0,86,0.00,,---,0.00,VWS V12.08,2013-09-08 09:21:00,
2013-09-08 04:26:00,73.0,68.9,29.13,NNW,339,0.0,0.0,87,0.00,,---,0.00,VWS V12.08,2013-09-08 09:26:00,
2013-09-08 04:32:00,72.9,68.8,29.12,NNW,343,0.0,0.0,87,0.00,,---,0.00,VWS V12.08,2013-09-08 09:32:00,
2013-09-08 04:37:00,72.7,68.6,29.12,North,0,0.0,0.0,87,0.00,,---,0.00,VWS V12.08,2013-09-08 09:37:00,
2013-09-08 04:42:00,72.6,68.5,29.12,North,0,0.0,0.0,87,0.00,,---,0.00,VWS V12.08,2013-09-08 09:42:00,
2013-09-08 04:47:00,72.8,69.0,29.12,North,0,0.0,0.0,88,0.00,,---,0.00,VWS V12.08,2013-09-08 09:47:00,
2013-09-08 04:52:00,73.1,69.0,29.13,NNW,337,0.0,0.0,87,0.00,,---,0.00,VWS V12.08,2013-09-08 09:52:00,
2013-09-08 04:57:00,72.9,68.5,29.13,North,351,0.0,0.0,86,0.00,,---,0.00,VWS V12.08,2013-09-08 09:57:00,
2013-09-08 05:02:00,72.6,68.5,29.12,North,356,0.0,0.0,87,0.00,,---,0.00,VWS V12.08,2013-09-08 10:02:00,
2013-09-08 05:07:00,72.5,68.4,29.12,North,0,0.0,0.0,87,0.00,,---,0.00,VWS V12.08,2013-09-08 10:07:00,
2013-09-08 05:12:00,72.2,68.1,29.12,North,359,0.0,0.0,87,0.00,,---,0.00,VWS V12.08,2013-09-08 10:12:00,
2013-09-08 05:17:00,71.9,67.8,29.12,North,0,0.0,0.0,87,0.00,,---,0.00,VWS V12.08,2013-09-08 10:17:00,
2013-09-08 05:22:00,71.6,67.9,29.12,North,0,0.0,0.0,88,0.00,,---,0.00,VWS V12.08,2013-09-08 10:22:00,
2013-09-08 05:27:00,71.4,67.7,29.12,North,0,0.0,0.0,88,0.00,,---,0.00,VWS V12.08,2013-09-08 10:27:00,
2013-09-08 05:32:00,71.2,67.8,29.13,North,0,0.0,0.0,89,0.00,,---,0.00,VWS V12.08,2013-09-08 10:32:00,
2013-09-08 05:37:00,71.4,68.0,29.13,North,0,0.0,0.0,89,0.00,,---,0.00,VWS V12.08,2013-09-08 10:37:00,
2013-09-08 05:42:00,71.3,67.9,29.13,North,359,0.0,0.0,89,0.00,,---,0.00,VWS V12.08,2013-09-08 10:42:00,
2013-09-08 05:47:00,71.1,67.7,29.13,North,0,0.0,0.0,89,0.00,,---,0.00,VWS V12.08,2013-09-08 10:47:00,
2013-09-08 05:52:00,70.9,67.5,29.13,North,359,0.0,0.0,89,0.00,,---,0.00,VWS V12.08,2013-09-08 10:52:00,
2013-09-08 05:57:00,70.8,67.4,29.14,ENE,71,0.0,0.0,89,0.00,,---,0.00,VWS V12.08,2013-09-08 10:57:00,
2013-09-08 06:02:00,70.7,67.6,29.13,ENE,74,0.0,0.0,90,0.00,,---,0.00,VWS V12.08,2013-09-08 11:02:00,
2013-09-08 06:07:00,70.6,67.5,29.14,ENE,57,0.0,0.0,90,0.00,,---,0.00,VWS V12.08,2013-09-08 11:07:00,
2013-09-08 06:12:00,70.6,67.5,29.14,NNE,31,0.0,0.0,90,0.00,,---,0.00,VWS V12.08,2013-09-08 11:12:00,
2013-09-08 06:17:00,70.5,67.4,29.14,ESE,107,0.0,0.0,90,0.00,,---,0.00,VWS V12.08,2013-09-08 11:17:00,
2013-09-08 06:22:00,70.3,67.2,29.14,ENE,62,0.0,0.0,90,0.00,,---,0.00,VWS V12.08,2013-09-08 11:22:00,
2013-09-08 06:27:00,70.2,67.1,29.14,NE,52,0.0,0.0,90,0.00,,---,0.00,VWS V12.08,2013-09-08 11:27:00,
2013-09-08 06:32:00,70.2,67.1,29.14,East,93,0.0,0.0,90,0.00,,---,0.00,VWS V12.08,2013-09-08 11:32:00,
2013-09-08 06:37:00,70.0,66.9,29.14,ENE,78,0.0,0.0,90,0.00,,---,0.00,VWS V12.08,2013-09-08 11:37:00,
2013-09-08 06:42:00,69.9,66.8,29.14,East,98,0.0,0.0,90,0.00,,---,0.00,VWS V12.08,2013-09-08 11:42:00,
2013-09-08 06:47:00,69.8,66.7,29.14,ENE,68,0.0,0.0,90,0.00,,---,0.00,VWS V12.08,2013-09-08 11:47:00,
2013-09-08 06:52:00,69.8,67.1,29.14,East,87,0.0,0.0,91,0.00,,---,0.00,VWS V12.08,2013-09-08 11:52:00,
2013-09-08 06:57:00,69.7,67.0,29.14,NE,39,0.0,0.0,91,0.00,,---,0.00,VWS V12.08,2013-09-08 11:57:00,
2013-09-08 07:02:00,69.7,67.0,29.14,SE,138,0.0,1.0,91,0.00,,---,0.00,VWS V12.08,2013-09-08 12:02:00,
2013-09-08 07:07:00,69.7,67.0,29.14,East,79,0.0,1.0,91,0.00,,---,0.00,VWS V12.08,2013-09-08 12:07:00,
2013-09-08 07:13:00,69.8,67.1,29.15,SE,125,0.0,1.0,91,0.00,,---,0.00,VWS V12.08,2013-09-08 12:13:00,
2013-09-08 07:18:00,69.7,67.0,29.15,SSE,165,0.0,1.0,91,0.00,,---,0.00,VWS V12.08,2013-09-08 12:18:00,
2013-09-08 07:23:00,69.8,67.1,29.15,East,80,0.0,1.0,91,0.00,,---,0.00,VWS V12.08,2013-09-08 12:23:00,
2013-09-08 07:28:00,69.8,67.1,29.15,SSE,166,0.0,1.0,91,0.00,,---,0.00,VWS V12.08,2013-09-08 12:28:00,
2013-09-08 07:33:00,69.9,67.2,29.16,ESE,113,0.0,0.0,91,0.00,,---,0.00,VWS V12.08,2013-09-08 12:33:00,
2013-09-08 07:38:00,70.1,67.4,29.16,ESE,123,0.0,0.0,91,0.00,,---,0.00,VWS V12.08,2013-09-08 12:38:00,
2013-09-08 07:43:00,70.2,67.4,29.16,SSE,163,0.0,0.0,91,0.00,,---,0.00,VWS V12.08,2013-09-08 12:43:00,
2013-09-08 07:48:00,70.3,67.6,29.16,ESE,117,0.0,0.0,91,0.00,,---,0.00,VWS V12.08,2013-09-08 12:48:00,
2013-09-08 07:53:00,70.5,67.8,29.16,ESE,122,0.0,0.0,91,0.00,,---,0.00,VWS V12.08,2013-09-08 12:53:00,
2013-09-08 07:58:00,70.7,67.6,29.16,SSE,160,0.0,0.0,90,0.00,,---,0.00,VWS V12.08,2013-09-08 12:58:00,
2013-09-08 08:03:00,71.0,67.9,29.16,SSW,199,0.0,0.0,90,0.00,,---,0.00,VWS V12.08,2013-09-08 13:03:00,
2013-09-08 08:08:00,71.1,68.0,29.16,South,187,0.0,0.0,90,0.00,,---,0.00,VWS V12.08,2013-09-08 13:08:00,
2013-09-08 08:13:00,71.4,68.0,29.16,South,169,0.0,0.0,89,0.00,,---,0.00,VWS V12.08,2013-09-08 13:13:00,
2013-09-08 08:18:00,71.7,68.3,29.16,ESE,119,0.0,0.0,89,0.00,,---,0.00,VWS V12.08,2013-09-08 13:18:00,
2013-09-08 08:23:00,71.8,68.1,29.16,SSE,156,0.0,0.0,88,0.00,,---,0.00,VWS V12.08,2013-09-08 13:23:00,
2013-09-08 08:28:00,72.0,68.3,29.16,SW,223,0.0,0.0,88,0.00,,---,0.00,VWS V12.08,2013-09-08 13:28:00,
2013-09-08 08:33:00,72.3,68.6,29.16,ESE,115,0.0,0.0,88,0.00,,---,0.00,VWS V12.08,2013-09-08 13:33:00,
2013-09-08 08:38:00,72.5,68.4,29.16,SSE,161,0.0,0.0,87,0.00,,---,0.00,VWS V12.08,2013-09-08 13:38:00,
2013-09-08 08:43:00,72.8,68.7,29.16,SE,135,0.0,0.0,87,0.00,,---,0.00,VWS V12.08,2013-09-08 13:43:00,
2013-09-08 08:49:00,73.1,69.0,29.16,South,184,0.0,0.0,87,0.00,,---,0.00,VWS V12.08,2013-09-08 13:49:00,
2013-09-08 08:54:00,73.4,69.0,29.16,SE,137,0.0,0.0,86,0.00,,---,0.00,VWS V12.08,2013-09-08 13:54:00,
2013-09-08 08:59:00,73.7,69.3,29.16,SSW,193,0.0,0.0,86,0.00,,---,0.00,VWS V12.08,2013-09-08 13:59:00,
2013-09-08 09:04:00,74.0,69.2,29.17,SSE,148,0.0,0.0,85,0.00,,---,0.00,VWS V12.08,2013-09-08 14:04:00,
2013-09-08 09:09:00,74.1,69.0,29.17,SSE,168,0.0,0.0,84,0.00,,---,0.00,VWS V12.08,2013-09-08 14:09:00,
2013-09-08 09:14:00,74.3,69.2,29.17,ESE,109,0.0,0.0,84,0.00,,---,0.00,VWS V12.08,2013-09-08 14:14:00,
2013-09-08 09:19:00,74.6,69.4,29.17,SSE,154,0.0,0.0,84,0.00,,---,0.00,VWS V12.08,2013-09-08 14:19:00,
2013-09-08 09:24:00,74.6,69.1,29.17,SSW,193,0.0,0.0,83,0.00,,---,0.00,VWS V12.08,2013-09-08 14:24:00,
2013-09-08 09:29:00,74.9,69.4,29.17,West,259,0.0,0.0,83,0.00,,---,0.00,VWS V12.08,2013-09-08 14:29:00,
2013-09-08 09:34:00,75.0,69.5,29.17,SSW,213,0.0,0.0,83,0.00,,---,0.00,VWS V12.08,2013-09-08 14:34:00,
2013-09-08 09:39:00,75.1,69.6,29.17,SSW,204,0.0,0.0,83,0.00,,---,0.00,VWS V12.08,2013-09-08 14:39:00,
2013-09-08 09:44:00,75.2,69.7,29.17,SSW,195,0.0,0.0,83,0.00,,---,0.00,VWS V12.08,2013-09-08 14:44:00,
2013-09-08 09:49:00,75.2,69.7,29.17,SSW,208,0.0,1.0,83,0.00,,---,0.00,VWS V12.08,2013-09-08 14:49:00,
2013-09-08 09:54:00,75.4,69.9,29.17,SSW,194,0.0,1.0,83,0.00,,---,0.00,VWS V12.08,2013-09-08 14:54:00,
2013-09-08 09:59:00,75.5,70.0,29.17,SSW,202,0.0,1.0,83,0.00,,---,0.00,VWS V12.08,2013-09-08 14:59:00,
2013-09-08 10:04:00,75.9,70.4,29.17,SSW,209,0.0,0.0,83,0.00,,---,0.00,VWS V12.08,2013-09-08 15:04:00,
2013-09-08 10:09:00,76.5,70.6,29.17,South,188,0.0,0.0,82,0.00,,---,0.00,VWS V12.08,2013-09-08 15:09:00,
2013-09-08 10:14:00,76.9,70.6,29.18,South,178,0.0,0.0,81,0.00,,---,0.00,VWS V12.08,2013-09-08 15:14:00,
2013-09-08 10:19:00,77.4,71.1,29.18,ESE,120,0.0,0.0,81,0.00,,---,0.00,VWS V12.08,2013-09-08 15:19:00,
2013-09-08 10:24:00,77.7,70.7,29.18,SSW,209,0.0,0.0,79,0.00,,---,0.00,VWS V12.08,2013-09-08 15:24:00,
2013-09-08 10:29:00,77.8,70.4,29.18,West,264,0.0,0.0,78,0.00,,---,0.00,VWS V12.08,2013-09-08 15:29:00,
2013-09-08 10:34:00,77.9,70.5,29.18,WSW,244,0.0,0.0,78,0.00,,---,0.00,VWS V12.08,2013-09-08 15:34:00,
2013-09-08 10:39:00,78.4,70.6,29.18,South,191,0.0,0.0,77,0.00,,---,0.00,VWS V12.08,2013-09-08 15:39:00,
2013-09-08 10:45:00,78.8,70.6,29.18,SW,223,0.0,0.0,76,0.00,,---,0.00,VWS V12.08,2013-09-08 15:45:00,
2013-09-08 10:50:00,79.3,71.1,29.18,SSE,155,0.0,0.0,76,0.00,,---,0.00,VWS V12.08,2013-09-08 15:50:00,
2013-09-08 10:55:00,79.3,70.7,29.18,South,186,0.0,0.0,75,0.00,,---,0.00,VWS V12.08,2013-09-08 15:55:00,
2013-09-08 11:00:00,79.4,70.4,29.18,WSW,247,0.0,0.0,74,0.00,,---,0.00,VWS V12.08,2013-09-08 16:00:00,
2013-09-08 11:05:00,79.6,70.6,29.18,WSW,256,0.0,0.0,74,0.00,,---,0.00,VWS V12.08,2013-09-08 16:05:00,
2013-09-08 11:10:00,80.0,71.0,29.18,SW,221,0.0,0.0,74,0.00,,---,0.00,VWS V12.08,2013-09-08 16:10:00,
2013-09-08 11:16:00,80.5,71.1,29.18,SSW,194,0.0,0.0,73,0.00,,---,0.00,VWS V12.08,2013-09-08 16:16:00,
2013-09-08 11:21:00,80.4,71.0,29.18,SSW,201,0.0,1.0,73,0.00,,---,0.00,VWS V12.08,2013-09-08 16:21:00,
2013-09-08 11:26:00,81.0,71.5,29.18,WSW,249,0.0,1.0,73,0.00,,---,0.00,VWS V12.08,2013-09-08 16:26:00,
2013-09-08 11:31:00,81.3,71.4,29.18,WSW,238,0.0,0.0,72,0.00,,---,0.00,VWS V12.08,2013-09-08 16:31:00,
2013-09-08 11:36:00,81.6,71.7,29.18,West,269,0.0,0.0,72,0.00,,---,0.00,VWS V12.08,2013-09-08 16:36:00,
2013-09-08 11:41:00,81.8,71.5,29.18,SW,221,0.0,0.0,71,0.00,,---,0.00,VWS V12.08,2013-09-08 16:41:00,
2013-09-08 11:47:00,81.9,71.6,29.18,SSW,195,0.0,0.0,71,0.00,,---,0.00,VWS V12.08,2013-09-08 16:47:00,
2013-09-08 11:52:00,82.3,72.0,29.18,SSW,201,0.0,0.0,71,0.00,,---,0.00,VWS V12.08,2013-09-08 16:52:00,
2013-09-08 11:57:00,82.3,71.5,29.18,West,270,0.0,0.0,70,0.00,,---,0.00,VWS V12.08,2013-09-08 16:57:00,
2013-09-08 12:03:00,82.8,72.0,29.18,West,261,0.0,0.0,70,0.00,,---,0.00,VWS V12.08,2013-09-08 17:03:00,
2013-09-08 12:08:00,82.9,71.7,29.17,NNW,333,0.0,0.0,69,0.00,,---,0.00,VWS V12.08,2013-09-08 17:08:00,
2013-09-08 12:13:00,83.3,71.6,29.18,SE,131,0.0,0.0,68,0.00,,---,0.00,VWS V12.08,2013-09-08 17:13:00,
2013-09-08 12:18:00,83.2,71.6,29.17,ESE,113,0.0,0.0,68,0.00,,---,0.00,VWS V12.08,2013-09-08 17:18:00,
2013-09-08 12:23:00,83.8,71.7,29.17,NNE,28,0.0,0.0,67,0.00,,---,0.00,VWS V12.08,2013-09-08 17:23:00,
2013-09-08 12:28:00,83.9,71.3,29.17,NNW,345,0.0,0.0,66,0.00,,---,0.00,VWS V12.08,2013-09-08 17:28:00,
2013-09-08 12:33:00,83.8,71.2,29.17,SW,221,0.0,0.0,66,0.00,,---,0.00,VWS V12.08,2013-09-08 17:33:00,
2013-09-08 12:38:00,84.0,71.4,29.16,SSW,192,0.0,0.0,66,0.00,,---,0.00,VWS V12.08,2013-09-08 17:38:00,
2013-09-08 12:43:00,84.0,71.0,29.16,South,176,0.0,1.0,65,0.00,,---,0.00,VWS V12.08,2013-09-08 17:43:00,
2013-09-08 12:48:00,84.1,71.1,29.16,South,188,0.0,1.0,65,0.00,,---,0.00,VWS V12.08,2013-09-08 17:48:00,
2013-09-08 12:53:00,84.4,71.4,29.16,WSW,251,0.0,1.0,65,0.00,,---,0.00,VWS V12.08,2013-09-08 17:53:00,
2013-09-08 12:58:00,84.1,71.1,29.16,WNW,295,0.0,1.0,65,0.00,,---,0.00,VWS V12.08,2013-09-08 17:58:00,
2013-09-08 13:03:00,84.3,71.3,29.16,WSW,240,0.0,0.0,65,0.00,,---,0.00,VWS V12.08,2013-09-08 18:03:00,
2013-09-08 13:08:00,84.7,71.2,29.16,SSW,208,0.0,0.0,64,0.00,,---,0.00,VWS V12.08,2013-09-08 18:08:00,
2013-09-08 13:14:00,84.8,71.3,29.16,South,170,0.0,0.0,64,0.00,,---,0.00,VWS V12.08,2013-09-08 18:14:00,
2013-09-08 13:19:00,84.9,71.4,29.15,North,4,0.0,0.0,64,0.00,,---,0.00,VWS V12.08,2013-09-08 18:19:00,
2013-09-08 13:24:00,85.2,71.2,29.15,NW,319,0.0,0.0,63,0.00,,---,0.00,VWS V12.08,2013-09-08 18:24:00,
2013-09-08 13:29:00,85.0,71.0,29.15,South,186,0.0,0.0,63,0.00,,---,0.00,VWS V12.08,2013-09-08 18:29:00,
2013-09-08 13:34:00,85.3,70.8,29.15,WSW,256,0.0,0.0,62,0.00,,---,0.00,VWS V12.08,2013-09-08 18:34:00,
2013-09-08 13:39:00,85.6,71.6,29.15,NW,312,0.0,0.0,63,0.00,,---,0.00,VWS V12.08,2013-09-08 18:39:00,
2013-09-08 13:44:00,85.6,71.6,29.15,NW,307,0.0,0.0,63,0.00,,---,0.00,VWS V12.08,2013-09-08 18:44:00,
2013-09-08 13:49:00,85.9,70.9,29.15,WNW,284,0.0,1.0,61,0.00,,---,0.00,VWS V12.08,2013-09-08 18:49:00,
2013-09-08 13:54:00,85.6,71.1,29.15,NE,37,0.0,1.0,62,0.00,,---,0.00,VWS V12.08,2013-09-08 18:54:00,
2013-09-08 13:59:00,85.3,70.8,29.15,South,184,0.0,1.0,62,0.00,,---,0.00,VWS V12.08,2013-09-08 18:59:00,
2013-09-08 14:04:00,85.4,71.4,29.14,WSW,238,0.0,0.0,63,0.00,,---,0.00,VWS V12.08,2013-09-08 19:04:00,
2013-09-08 14:10:00,85.6,71.1,29.14,WSW,240,0.0,0.0,62,0.00,,---,0.00,VWS V12.08,2013-09-08 19:10:00,
2013-09-08 14:15:00,86.3,71.3,29.14,West,278,0.0,0.0,61,0.00,,---,0.00,VWS V12.08,2013-09-08 19:15:00,
2013-09-08 14:20:00,86.3,71.3,29.14,SW,226,0.0,1.0,61,0.00,,---,0.00,VWS V12.08,2013-09-08 19:20:00,
2013-09-08 14:25:00,86.3,71.3,29.13,ENE,58,0.0,1.0,61,0.00,,---,0.00,VWS V12.08,2013-09-08 19:25:00,
2013-09-08 14:30:00,86.7,71.7,29.13,NNW,348,0.0,0.0,61,0.00,,---,0.00,VWS V12.08,2013-09-08 19:30:00,
2013-09-08 14:36:00,86.6,71.1,29.13,NW,324,0.0,0.0,60,0.00,,---,0.00,VWS V12.08,2013-09-08 19:36:00,
2013-09-08 14:41:00,86.8,71.8,29.13,NW,309,0.0,0.0,61,0.00,,---,0.00,VWS V12.08,2013-09-08 19:41:00,
2013-09-08 14:47:00,87.0,71.4,29.13,NNW,348,0.0,0.0,60,0.00,,---,0.00,VWS V12.08,2013-09-08 19:47:00,
2013-09-08 14:53:00,86.8,71.8,29.13,West,272,0.0,0.0,61,0.00,,---,0.00,VWS V12.08,2013-09-08 19:53:00,
2013-09-08 14:58:00,86.5,71.5,29.13,NW,308,0.0,0.0,61,0.00,,---,0.00,VWS V12.08,2013-09-08 19:58:00,
2013-09-08 15:03:00,86.2,71.7,29.13,NW,305,0.0,0.0,62,0.00,,---,0.00,VWS V12.08,2013-09-08 20:03:00,
2013-09-08 15:08:00,86.2,71.7,29.13,WNW,300,0.0,0.0,62,0.00,,---,0.00,VWS V12.08,2013-09-08 20:08:00,
2013-09-08 15:13:00,86.3,71.8,29.13,West,269,0.0,1.0,62,0.00,,---,0.00,VWS V12.08,2013-09-08 20:13:00,
2013-09-08 15:18:00,86.4,71.8,29.13,NW,317,0.0,1.0,62,0.00,,---,0.00,VWS V12.08,2013-09-08 20:18:00,
2013-09-08 15:23:00,86.4,71.8,29.13,SSE,148,0.0,1.0,62,0.00,,---,0.00,VWS V12.08,2013-09-08 20:23:00,
2013-09-08 15:28:00,87.0,71.9,29.13,SW,234,0.0,1.0,61,0.00,,---,0.00,VWS V12.08,2013-09-08 20:28:00,
2013-09-08 15:33:00,87.4,71.8,29.13,WSW,238,0.0,0.0,60,0.00,,---,0.00,VWS V12.08,2013-09-08 20:33:00,
2013-09-08 15:38:00,87.3,71.7,29.13,NW,315,0.0,0.0,60,0.00,,---,0.00,VWS V12.08,2013-09-08 20:38:00,
2013-09-08 15:43:00,87.2,71.6,29.12,West,264,0.0,0.0,60,0.00,,---,0.00,VWS V12.08,2013-09-08 20:43:00,
2013-09-08 15:48:00,87.0,71.4,29.12,WNW,291,0.0,0.0,60,0.00,,---,0.00,VWS V12.08,2013-09-08 20:48:00,
2013-09-08 15:53:00,86.5,71.5,29.12,SW,226,0.0,0.0,61,0.00,,---,0.00,VWS V12.08,2013-09-08 20:53:00,
2013-09-08 15:58:00,86.3,71.8,29.12,NW,320,0.0,0.0,62,0.00,,---,0.00,VWS V12.08,2013-09-08 20:58:00,
2013-09-08 16:03:00,86.1,71.6,29.11,SW,226,0.0,0.0,62,0.00,,---,0.00,VWS V12.08,2013-09-08 21:03:00,
2013-09-08 16:08:00,86.1,72.0,29.11,WNW,282,0.0,0.0,63,0.00,,---,0.00,VWS V12.08,2013-09-08 21:08:00,
2013-09-08 16:13:00,86.4,71.8,29.11,NW,317,0.0,0.0,62,0.00,,---,0.00,VWS V12.08,2013-09-08 21:13:00,
2013-09-08 16:19:00,86.9,72.3,29.12,SSE,155,0.0,0.0,62,0.00,,---,0.00,VWS V12.08,2013-09-08 21:19:00,
2013-09-08 16:25:00,87.0,72.4,29.12,NNW,330,0.0,0.0,62,0.00,,---,0.00,VWS V12.08,2013-09-08 21:25:00,
2013-09-08 16:30:00,87.2,72.6,29.12,NW,311,0.0,0.0,62,0.00,,---,0.00,VWS V12.08,2013-09-08 21:30:00,
2013-09-08 16:35:00,86.9,71.8,29.11,NW,309,0.0,1.0,61,0.00,,---,0.00,VWS V12.08,2013-09-08 21:35:00,
2013-09-08 16:41:00,86.6,72.5,29.12,NW,318,0.0,1.0,63,0.00,,---,0.00,VWS V12.08,2013-09-08 21:41:00,
2013-09-08 16:46:00,86.6,72.0,29.12,NNW,348,0.0,1.0,62,0.00,,---,0.00,VWS V12.08,2013-09-08 21:46:00,
2013-09-08 16:51:00,86.4,72.3,29.12,NW,309,0.0,1.0,63,0.00,,---,0.00,VWS V12.08,2013-09-08 21:51:00,
2013-09-08 16:56:00,86.1,72.0,29.12,NW,326,0.0,1.0,63,0.00,,---,0.00,VWS V12.08,2013-09-08 21:56:00,
2013-09-08 17:02:00,85.9,71.8,29.12,SW,229,0.0,0.0,63,0.00,,---,0.00,VWS V12.08,2013-09-08 22:02:00,
2013-09-08 17:07:00,85.8,71.8,29.12,NNW,344,0.0,1.0,63,0.00,,---,0.00,VWS V12.08,2013-09-08 22:07:00,
2013-09-08 17:12:00,85.7,71.7,29.12,NNW,336,0.0,1.0,63,0.00,,---,0.00,VWS V12.08,2013-09-08 22:12:00,
2013-09-08 17:17:00,85.6,72.0,29.11,NNW,333,0.0,1.0,64,0.00,,---,0.00,VWS V12.08,2013-09-08 22:17:00,
2013-09-08 17:22:00,85.6,72.0,29.11,NW,322,0.0,1.0,64,0.00,,---,0.00,VWS V12.08,2013-09-08 22:22:00,
2013-09-08 17:27:00,85.5,71.5,29.11,NNW,330,0.0,1.0,63,0.00,,---,0.00,VWS V12.08,2013-09-08 22:27:00,
2013-09-08 17:32:00,85.2,71.7,29.11,NNW,335,0.0,1.0,64,0.00,,---,0.00,VWS V12.08,2013-09-08 22:32:00,
2013-09-08 17:37:00,85.1,71.6,29.11,WNW,287,0.0,1.0,64,0.00,,---,0.00,VWS V12.08,2013-09-08 22:37:00,
2013-09-08 17:42:00,84.9,71.8,29.11,NNW,331,0.0,1.0,65,0.00,,---,0.00,VWS V12.08,2013-09-08 22:42:00,
2013-09-08 17:48:00,85.2,71.7,29.11,NNW,337,0.0,1.0,64,0.00,,---,0.00,VWS V12.08,2013-09-08 22:48:00,
2013-09-08 17:53:00,85.3,71.8,29.11,NNW,330,0.0,1.0,64,0.00,,---,0.00,VWS V12.08,2013-09-08 22:53:00,
2013-09-08 17:58:00,85.3,71.8,29.11,NW,306,0.0,1.0,64,0.00,,---,0.00,VWS V12.08,2013-09-08 22:58:00,
2013-09-08 18:03:00,85.2,71.7,29.11,WNW,299,0.0,0.0,64,0.00,,---,0.00,VWS V12.08,2013-09-08 23:03:00,
2013-09-08 18:08:00,84.9,71.8,29.11,NNW,330,0.0,0.0,65,0.00,,---,0.00,VWS V12.08,2013-09-08 23:08:00,
2013-09-08 18:14:00,84.8,71.7,29.11,SW,228,0.0,1.0,65,0.00,,---,0.00,VWS V12.08,2013-09-08 23:14:00,
2013-09-08 18:19:00,84.7,71.6,29.11,SW,223,0.0,1.0,65,0.00,,---,0.00,VWS V12.08,2013-09-08 23:19:00,
2013-09-08 18:24:00,84.6,71.6,29.11,NNW,343,0.0,1.0,65,0.00,,---,0.00,VWS V12.08,2013-09-08 23:24:00,
2013-09-08 18:29:00,84.4,71.8,29.11,NNW,335,0.0,1.0,66,0.00,,---,0.00,VWS V12.08,2013-09-08 23:29:00,
2013-09-08 18:34:00,84.0,71.4,29.10,NW,324,0.0,0.0,66,0.00,,---,0.00,VWS V12.08,2013-09-08 23:34:00,
2013-09-08 18:39:00,83.8,71.2,29.10,North,349,0.0,1.0,66,0.00,,---,0.00,VWS V12.08,2013-09-08 23:39:00,
2013-09-08 18:44:00,83.6,71.5,29.10,NNW,346,0.0,1.0,67,0.00,,---,0.00,VWS V12.08,2013-09-08 23:44:00,
2013-09-08 18:49:00,83.5,71.4,29.10,NNW,335,0.0,1.0,67,0.00,,---,0.00,VWS V12.08,2013-09-08 23:49:00,
2013-09-08 18:54:00,83.2,71.1,29.11,NNW,330,0.0,1.0,67,0.00,,---,0.00,VWS V12.08,2013-09-08 23:54:00,
2013-09-08 18:59:00,82.8,71.2,29.10,NW,322,0.0,1.0,68,0.00,,---,0.00,VWS V12.08,2013-09-08 23:59:00,
2013-09-08 19:04:00,82.6,71.0,29.10,NNW,332,0.0,0.0,68,0.00,,---,0.00,VWS V12.08,2013-09-09 00:04:00,
2013-09-08 19:09:00,82.4,71.2,29.10,NNW,345,0.0,1.0,69,0.00,,---,0.00,VWS V12.08,2013-09-09 00:09:00,
2013-09-08 19:14:00,82.4,70.8,29.10,NNW,330,0.0,1.0,68,0.00,,---,0.00,VWS V12.08,2013-09-09 00:14:00,
2013-09-08 19:24:00,82.1,70.9,29.10,North,351,0.0,1.0,69,0.00,,---,0.00,VWS V12.08,2013-09-09 00:24:00,
2013-09-08 19:30:00,81.9,70.7,29.10,North,0,0.0,1.0,69,0.00,,---,0.00,VWS V12.08,2013-09-09 00:30:00,
2013-09-08 19:36:00,81.7,71.0,29.10,NW,308,0.0,0.0,70,0.00,,---,0.00,VWS V12.08,2013-09-09 00:36:00,
2013-09-08 19:46:00,81.4,71.1,29.10,North,352,0.0,0.0,71,0.00,,---,0.00,VWS V12.08,2013-09-09 00:46:00,
2013-09-08 19:51:00,81.2,70.9,29.10,North,351,0.0,0.0,71,0.00,,---,0.00,VWS V12.08,2013-09-09 00:51:00,
2013-09-08 19:56:00,81.1,70.8,29.10,NNW,331,0.0,0.0,71,0.00,,---,0.00,VWS V12.08,2013-09-09 00:56:00,
2013-09-08 20:01:00,80.9,70.6,29.10,NNW,329,0.0,0.0,71,0.00,,---,0.00,VWS V12.08,2013-09-09 01:01:00,
2013-09-08 20:06:00,80.8,70.9,29.11,NW,312,0.0,0.0,72,0.00,,---,0.00,VWS V12.08,2013-09-09 01:06:00,
2013-09-08 20:11:00,80.7,70.8,29.10,North,351,0.0,0.0,72,0.00,,---,0.00,VWS V12.08,2013-09-09 01:11:00,
2013-09-08 20:16:00,80.5,70.7,29.11,North,351,0.0,0.0,72,0.00,,---,0.00,VWS V12.08,2013-09-09 01:16:00,
2013-09-08 20:21:00,80.3,70.9,29.11,NW,314,0.0,0.0,73,0.00,,---,0.00,VWS V12.08,2013-09-09 01:21:00,
2013-09-08 20:26:00,80.2,70.8,29.11,NW,325,0.0,0.0,73,0.00,,---,0.00,VWS V12.08,2013-09-09 01:26:00,
2013-09-08 20:32:00,80.0,70.6,29.11,SW,220,0.0,0.0,73,0.00,,---,0.00,VWS V12.08,2013-09-09 01:32:00,
2013-09-08 20:37:00,79.9,70.5,29.11,North,351,0.0,0.0,73,0.00,,---,0.00,VWS V12.08,2013-09-09 01:37:00,
2013-09-08 20:43:00,79.7,70.7,29.11,NW,308,0.0,0.0,74,0.00,,---,0.00,VWS V12.08,2013-09-09 01:43:00,
2013-09-08 20:48:00,79.5,70.5,29.11,NW,320,0.0,0.0,74,0.00,,---,0.00,VWS V12.08,2013-09-09 01:48:00,
2013-09-08 20:53:00,79.4,70.4,29.11,North,355,0.0,0.0,74,0.00,,---,0.00,VWS V12.08,2013-09-09 01:53:00,
2013-09-08 20:58:00,79.2,70.6,29.11,North,359,0.0,0.0,75,0.00,,---,0.00,VWS V12.08,2013-09-09 01:58:00,
2013-09-08 21:03:00,79.0,70.4,29.11,NNW,342,0.0,0.0,75,0.00,,---,0.00,VWS V12.08,2013-09-09 02:03:00,
2013-09-08 21:08:00,78.9,70.3,29.11,NW,320,0.0,0.0,75,0.00,,---,0.00,VWS V12.08,2013-09-09 02:08:00,
2013-09-08 21:13:00,78.7,70.5,29.11,North,359,0.0,0.0,76,0.00,,---,0.00,VWS V12.08,2013-09-09 02:13:00,
2013-09-08 21:18:00,78.6,70.8,29.11,North,7,0.0,0.0,77,0.00,,---,0.00,VWS V12.08,2013-09-09 02:18:00,
2013-09-08 21:23:00,78.6,70.4,29.11,NNW,331,0.0,0.0,76,0.00,,---,0.00,VWS V12.08,2013-09-09 02:23:00,
2013-09-08 21:29:00,78.4,70.6,29.11,North,359,0.0,0.0,77,0.00,,---,0.00,VWS V12.08,2013-09-09 02:29:00,
2013-09-08 21:34:00,78.3,70.5,29.11,NNW,338,0.0,0.0,77,0.00,,---,0.00,VWS V12.08,2013-09-09 02:34:00,
2013-09-08 21:39:00,78.2,70.4,29.11,North,352,0.0,0.0,77,0.00,,---,0.00,VWS V12.08,2013-09-09 02:39:00,
2013-09-08 21:45:00,78.1,70.7,29.11,SW,221,0.0,0.0,78,0.00,,---,0.00,VWS V12.08,2013-09-09 02:45:00,
2013-09-08 21:50:00,78.0,70.6,29.11,North,353,0.0,0.0,78,0.00,,---,0.00,VWS V12.08,2013-09-09 02:50:00,
2013-09-08 21:55:00,77.9,70.5,29.11,North,354,0.0,1.0,78,0.00,,---,0.00,VWS V12.08,2013-09-09 02:55:00,
2013-09-08 22:00:00,77.9,70.9,29.11,NNW,340,0.0,0.0,79,0.00,,---,0.00,VWS V12.08,2013-09-09 03:00:00,
2013-09-08 22:05:00,77.8,70.8,29.11,WNW,295,0.0,0.0,79,0.00,,---,0.00,VWS V12.08,2013-09-09 03:05:00,
2013-09-08 22:10:00,77.8,70.8,29.11,NW,313,0.0,0.0,79,0.00,,---,0.00,VWS V12.08,2013-09-09 03:10:00,
2013-09-08 22:15:00,77.7,70.7,29.10,NNW,338,0.0,0.0,79,0.00,,---,0.00,VWS V12.08,2013-09-09 03:15:00,
2013-09-08 22:20:00,77.7,70.7,29.10,WNW,293,0.0,0.0,79,0.00,,---,0.00,VWS V12.08,2013-09-09 03:20:00,
2013-09-08 22:25:00,77.6,70.6,29.10,NNW,343,0.0,0.0,79,0.00,,---,0.00,VWS V12.08,2013-09-09 03:25:00,
2013-09-08 22:30:00,77.5,70.5,29.10,WNW,289,0.0,0.0,79,0.00,,---,0.00,VWS V12.08,2013-09-09 03:30:00,
2013-09-08 22:35:00,77.5,70.8,29.10,North,4,0.0,0.0,80,0.00,,---,0.00,VWS V12.08,2013-09-09 03:35:00,
2013-09-08 22:40:00,77.4,70.8,29.10,WNW,291,0.0,0.0,80,0.00,,---,0.00,VWS V12.08,2013-09-09 03:40:00,
2013-09-08 22:45:00,77.3,70.7,29.10,NNW,332,0.0,1.0,80,0.00,,---,0.00,VWS V12.08,2013-09-09 03:45:00,
2013-09-08 22:50:00,77.2,70.6,29.10,North,11,0.0,1.0,80,0.00,,---,0.00,VWS V12.08,2013-09-09 03:50:00,
2013-09-08 22:55:00,77.0,70.7,29.10,NNW,330,0.0,1.0,81,0.00,,---,0.00,VWS V12.08,2013-09-09 03:55:00,
2013-09-08 23:00:00,76.8,70.5,29.10,West,272,0.0,0.0,81,0.00,,---,0.00,VWS V12.08,2013-09-09 04:00:00,
2013-09-08 23:01:00,76.7,70.4,29.10,SE,131,0.0,0.0,81,0.00,,---,0.00,VWS V12.08,2013-09-09 04:01:00,
2013-09-08 23:02:00,76.7,70.4,29.10,NW,315,0.0,0.0,81,0.00,,---,0.00,VWS V12.08,2013-09-09 04:02:00,
2013-09-08 23:03:00,76.7,70.4,29.10,NNW,340,0.0,0.0,81,0.00,,---,0.00,VWS V12.08,2013-09-09 04:03:00,
2013-09-08 23:06:00,76.6,70.7,29.10,WNW,297,0.0,0.0,82,0.00,,---,0.00,VWS V12.08,2013-09-09 04:06:00,
2013-09-08 23:07:00,76.5,70.2,29.10,North,349,0.0,0.0,81,0.00,,---,0.00,VWS V12.08,2013-09-09 04:07:00,
2013-09-08 23:11:00,76.4,70.5,29.10,NW,307,0.0,0.0,82,0.00,,---,0.00,VWS V12.08,2013-09-09 04:11:00,
2013-09-08 23:16:00,76.3,70.4,29.10,North,7,0.0,1.0,82,0.00,,---,0.00,VWS V12.08,2013-09-09 04:16:00,
2013-09-08 23:21:00,76.2,70.7,29.10,North,8,0.0,1.0,83,0.00,,---,0.00,VWS V12.08,2013-09-09 04:21:00,
2013-09-08 23:27:00,76.1,70.6,29.10,WNW,290,0.0,1.0,83,0.00,,---,0.00,VWS V12.08,2013-09-09 04:27:00,
2013-09-08 23:32:00,76.0,70.5,29.10,North,349,0.0,0.0,83,0.00,,---,0.00,VWS V12.08,2013-09-09 04:32:00,
2013-09-08 23:37:00,75.9,70.4,29.10,SW,219,0.0,0.0,83,0.00,,---,0.00,VWS V12.08,2013-09-09 04:37:00,
2013-09-08 23:42:00,75.8,70.3,29.10,NW,325,0.0,0.0,83,0.00,,---,0.00,VWS V12.08,2013-09-09 04:42:00,
2013-09-08 23:47:00,75.7,70.5,29.10,NNW,332,0.0,0.0,84,0.00,,---,0.00,VWS V12.08,2013-09-09 04:47:00,
2013-09-08 23:52:00,75.6,70.4,29.10,NNW,331,0.0,0.0,84,0.00,,---,0.00,VWS V12.08,2013-09-09 04:52:00,
2013-09-08 23:57:00,75.5,70.3,29.10,North,359,0.0,0.0,84,0.00,,---,0.00,VWS V12.08,2013-09-09 04:57:00,